SCP
0 0 0 0 0 0 0 0 0 0 0 0 0 0 0 0 0 0 0 0 0 0 0 0 0 0 0 0 0 0 0 0 0 0 0 0 0 0 0 0 0 0 0 -0 -0
0 0 0 0 0 0 0 0 0 0 0 0 0 0 0 0 0 0 0 0 0 0 0 0 0 0 0 0 0 0 0 0 0 0 0 0 0 0 0 0 0 -0 -0 -1 -0
0 0 0 0 0 0 0 0 0 0 0 0 0 0 0 0 0 0 0 0 0 0 0 0 0 0 0 0 0 0 0 0 0 0 0 0 0 0 -0 0 0 -1 -1 -0 -0
0 0 0 0 0 0 0 0 0 0 0 0 0 0 0 0 0 0 0 0 0 0 0 0 0 0 0 0 0 0 0 0 0 0 0 -0 0 0 0 0 -0 -0 -0 -0 -0
0 0 0 0 0 0 0 0 0 0 0 0 0 0 0 0 0 0 0 0 0 0 0 0 0 0 0 0 0 0 0 0 0 0 0 0 0 0 0 0 -0 -0 0 0 0
-0 0 0 0 0 0 0 0 0 0 0 0 0 0 0 0 0 0 0 0 0 0 0 0 0 0 0 0 0 0 0 0 0 0 0 0 0 0 0 0 0 0 0 0 0
0 0 0 -0 -0 -0 -0 -0 -0 0 0 0 0 0 0 0 0 0 0 0 0 0 0 0 0 0 0 0 0 0 0 0 0 0 0 0 0 0 0 0 0 0 0 0 0
0 0 0 -0 -0 -0 -0 -0 -0 0 0 -0 -0 0 0 0 0 -0 0 0 0 0 0 0 0 0 0 0 0 0 0 0 0 0 0 0 0 0 0 0 0 0 0 0 0
0 0 0 -0 -0 -0 -0 -0 -0 -0 -0 0 0 0 0 0 0 0 0 0 0 0 0 0 0 0 0 0 0 0 0 0 0 0 0 0 1 0 0 0 0 0 0 0 0
-0 -0 0 -0 -0 -0 -0 -0 0 -0 0 0 0 0 0 0 0 0 0 0 0 0 0 0 0 0 0 0 0 0 0 0 0 0 0 0 0 0 0 0 0 0 0 0 0
0 -0 -0 0 -0 0 0 -0 -0 -0 0 0 0 0 -0 -0 0 0 0 0 0 0 0 0 0 0 0 0 0 0 0 0 0 0 0 0 0 0 0 0 0 0 0 0 0
0 0 0 -0 -0 0 -0 -0 0 0 0 -0 -0 0 -0 -0 0 0 0 0 0 0 0 0 0 0 0 0 0 0 0 0 0 0 0 0 0 0 0 0 0 0 0 0 0
0 0 -0 -0 0 0 -0 -0 0 0 0 0 0 0 -0 -0 -0 -0 0 0 0 0 0 0 0 0 0 0 0 0 0 0 0 0 0 0 0 0 0 0 0 0 0 0 0
-0 -0 -0 0 0 0 0 0 0 0 0 0 0 -0 -0 -0 -0 -0 0 0 0 0 0 0 0 0 0 0 0 0 0 0 0 0 0 0 0 0 0 0 0 0 0 0 0
-0 -0 0 0 0 0 0 -0 0 0 0 0 0 0 0 0 0 0 -0 0 0 0 0 0 0 0 0 0 0 0 0 0 0 0 0 0 0 0 0 0 0 0 0 0 0
-0 -0 0 0 0 -0 -0 -0 0 0 0 0 0 0 0 0 0 0 0 0 0 0 0 0 0 0 0 0 0 0 0 0 0 0 0 0 0 0 0 0 0 0 0 0 0
0 0 0 -0 0 -0 0 0 0 0 0 0 0 0 0 0 0 0 0 0 0 0 0 0 0 0 0 0 0 0 0 0 0 0 0 0 0 0 0 0 0 0 0 0 0
0 0 0 0 0 -0 0 0 0 0 0 0 0 0 0 0 0 0 0 0 0 0 0 0 0 0 0 0 0 0 0 0 0 0 0 0 0 0 0 0 0 0 0 0 0
0 0 0 0 0 0 0 0 0 0 0 0 0 0 0 0 0 0 0 0 0 0 0 0 0 0 0 0 0 0 0 0 0 0 0 0 0 0 0 0 0 0 0 0 0
0 0 0 0 0 0 0 0 0 0 0 0 0 0 0 0 0 0 0 0 0 0 0 0 0 0 0 0 0 0 0 0 0 0 0 0 0 0 0 0 0 0 0 0 0
0 0 0 0 0 0 0 0 0 0 0 0 0 0 0 0 0 0 0 0 0 0 0 0 0 0 0 0 0 0 0 0 0 0 0 0 0 0 0 0 0 0 0 0 0
0 0 0 0 0 0 0 0 0 0 0 0 0 0 0 0 0 0 0 0 0 0 0 0 0 0 0 0 0 0 0 0 0 0 0 0 0 0 0 0 0 0 0 0 0
0 0 0 0 0 0 0 0 0 0 0 0 0 0 0 0 0 0 0 0 0 0 0 0 0 0 0 0 0 0 0 0 0 0 0 0 0 0 0 -0 -0 0 0 0 0
0 0 0 0 0 0 0 0 0 0 0 0 0 0 0 0 0 0 0 0 0 0 0 0 0 0 0 0 0 0 0 0 0 1 0 0 0 0 0 0 0 0 0 0 0
0 0 0 0 0 0 0 0 0 0 0 0 0 0 0 0 0 0 0 0 0 0 0 0 0 0 0 0 0 0 0 0 0 0 0 0 0 0 0 0 0 0 0 0 0
0 0 0 0 0 0 0 0 0 0 0 0 0 0 0 0 0 0 0 0 0 0 0 0 0 0 0 0 -0 -0 -0 0 0 0 0 0 0 0 0 0 0 0 0 0 0
0 0 0 0 0 0 0 0 0 0 0 0 0 0 0 0 0 0 0 0 0 0 0 0 0 0 0 0 0 -0 0 0 0 0 0 0 0 0 0 0 0 0 0 0 0
Wind_Speed_500mb
24 24 24 24 23 24 24 24 23 23 22 22 22 23 26 26 27 31 32 15 13 21 28 22 15 18 24 21 16 14 8 14 12 14 7 19 17 7 13 21 13 7 11 35 39
24 24 24 23 23 23 24 23 23 22 22 21 22 22 23 26 28 31 11 8 17 20 26 34 19 19 12 13 12 12 15 21 13 17 12 22 20 23 13 24 15 30 34 40 39
25 24 23 22 22 22 22 21 21 21 22 20 21 21 20 23 22 7 9 2 10 23 20 34 23 18 11 11 13 12 21 17 11 19 17 25 23 11 30 14 17 40 48 46 47
26 24 23 22 21 20 20 20 19 20 21 21 19 18 18 17 2 7 4 10 12 32 28 28 23 17 12 13 13 11 16 9 4 18 20 20 26 17 6 9 24 42 49 53 51
27 25 23 22 19 18 19 18 18 18 20 20 17 15 16 10 11 13 8 2 8 36 33 23 23 12 12 10 12 10 3 4 5 16 19 26 13 17 15 19 31 43 46 50 51
28 25 22 20 17 16 18 18 19 20 20 19 17 16 15 9 5 2 7 10 8 24 29 21 13 11 8 6 9 1 7 13 12 20 11 22 10 7 14 24 29 36 43 43 45
26 24 20 18 17 16 17 19 20 20 18 17 17 17 22 18 6 10 7 9 8 10 15 17 7 4 3 9 11 11 9 11 12 12 7 22 7 8 30 30 32 33 39 41 42
25 24 20 17 17 17 17 19 18 17 17 17 17 19 12 5 5 12 14 9 10 12 11 8 18 0 2 17 7 7 5 13 8 12 12 10 32 14 32 35 34 34 36 41 39
26 25 20 16 16 16 17 16 17 19 22 21 18 10 11 6 22 9 14 7 12 9 20 13 17 7 9 8 7 3 9 16 7 18 11 20 17 19 33 35 34 35 33 34 37
24 24 20 15 14 14 16 15 19 21 13 16 16 7 3 3 29 10 8 22 10 18 12 3 5 5 6 11 13 14 8 10 19 22 18 24 17 19 32 36 37 34 33 32 32
22 22 17 13 12 14 16 10 18 7 27 19 23 25 40 29 2 4 7 23 13 8 5 3 7 13 13 15 3 12 11 16 20 11 26 33 31 21 34 35 39 41 41 38 34
18 18 14 11 10 13 21 12 12 15 18 20 12 31 30 31 9 4 16 14 12 10 10 6 14 13 6 11 12 14 13 20 7 16 28 33 39 22 36 46 51 48 47 43 38
15 15 12 8 8 10 15 22 27 28 7 15 14 10 8 17 11 9 24 13 7 12 12 13 6 17 15 14 16 15 20 18 22 7 15 6 29 28 22 36 45 51 49 50 49
12 12 7 5 10 5 13 29 27 10 4 17 22 7 7 5 3 7 25 9 4 13 11 14 8 18 16 20 26 19 31 29 26 16 24 29 29 35 37 34 41 55 61 60 53
11 8 4 5 9 7 16 29 16 6 5 24 20 12 5 3 11 12 18 14 16 14 12 14 12 14 18 29 28 20 5 24 26 32 17 13 15 24 10 31 46 65 73 64 58
13 11 7 6 6 9 24 26 10 3 9 12 15 17 12 16 13 20 5 3 2 10 12 24 5 10 24 11 28 9 6 7 3 11 18 29 26 27 18 33 44 51 61 64 62
21 18 13 10 6 16 25 12 2 10 14 19 18 16 14 19 18 19 14 13 9 8 14 17 23 11 18 25 16 16 13 17 17 13 27 13 26 33 14 14 18 24 55 62 65
37 30 25 19 17 24 17 7 19 13 11 17 14 9 12 23 13 17 18 14 15 11 7 8 12 9 9 14 12 17 18 21 36 28 29 13 17 11 8 20 22 20 50 63 66
38 41 37 29 27 19 9 14 8 10 18 17 11 11 12 17 18 19 11 19 16 27 11 10 15 10 15 10 5 5 14 10 18 13 20 29 11 7 3 12 11 24 50 61 66
15 30 43 37 27 22 14 11 6 20 12 5 14 15 16 21 21 20 13 15 20 26 22 8 15 14 7 5 4 7 4 11 8 24 37 21 11 5 12 8 11 22 39 53 61
8 11 34 27 29 27 9 8 7 31 24 17 12 8 10 13 10 14 7 12 25 33 22 19 11 18 12 13 15 9 15 3 1 6 14 20 6 1 13 10 14 23 35 51 59
14 8 27 20 16 8 7 7 10 19 29 17 10 11 12 14 11 11 13 11 27 29 19 10 11 21 32 6 5 6 6 6 13 17 8 7 14 5 6 5 17 30 35 49 52
14 10 33 15 7 6 6 8 14 20 18 15 17 12 12 9 10 12 15 30 22 29 24 11 5 17 23 12 5 9 2 5 6 4 21 13 11 6 15 14 22 36 47 46 46
9 4 19 39 15 6 4 10 10 17 10 17 14 12 15 12 6 12 15 14 39 29 10 5 8 15 9 17 23 27 6 10 7 9 13 19 26 5 5 13 20 26 43 58 58
10 8 6 6 16 16 7 7 9 11 14 25 7 18 10 8 16 6 23 33 24 17 15 10 19 29 33 31 6 27 15 16 13 13 13 10 14 19 23 20 24 35 44 47 52
9 10 18 9 4 9 10 6 12 11 6 5 11 18 11 7 13 33 36 29 11 20 11 6 6 20 41 35 29 26 38 5 16 18 13 20 24 32 37 7 28 41 51 51 51
24 20 9 9 4 2 3 3 6 12 5 4 15 11 13 17 32 43 35 26 20 9 8 8 10 8 21 17 21 22 9 8 11 8 8 10 21 32 17 10 23 36 44 49 52
Wind_Direction_500mb
314 312 307 306 306 306 308 312 313 309 310 309 311 312 310 306 299 292 286 269 238 209 209 188 189 183 184 194 191 174 187 206 213 202 217 166 158 127 120 126 78 85 124 147 157
320 315 311 307 307 306 307 311 313 311 310 311 311 314 313 313 308 293 268 242 221 204 200 195 196 175 164 184 184 200 211 210 212 203 212 177 176 141 150 139 91 97 123 148 154
326 320 315 315 311 307 304 310 311 312 308 309 312 314 317 323 323 130 125 79 232 197 182 200 195 172 163 170 192 180 220 219 237 210 189 178 156 143 150 175 163 147 140 150 160
327 323 323 317 318 307 307 310 312 311 307 306 308 310 318 324 319 188 239 297 236 188 170 172 178 162 168 183 189 222 233 236 315 203 180 181 152 116 145 111 143 149 156 162 166
333 333 327 321 316 311 308 309 313 311 306 301 302 311 323 304 265 269 301 340 206 185 182 178 173 159 189 181 161 222 223 160 120 163 181 153 150 134 112 124 141 159 162 165 173
337 334 328 321 317 316 310 314 316 311 306 302 310 318 310 273 245 344 106 79 113 177 186 191 197 175 129 145 196 64 135 118 131 148 128 160 129 160 154 148 143 156 165 166 172
339 334 331 327 324 319 319 322 319 315 310 308 310 313 298 282 242 216 89 130 127 169 190 201 146 131 144 134 129 125 131 120 132 149 127 149 178 204 154 157 149 152 162 169 172
339 338 338 333 326 325 331 327 317 313 309 306 309 312 271 312 329 250 236 188 144 161 170 133 196 274 65 122 88 125 130 209 152 177 156 215 218 156 163 164 159 160 160 170 174
338 341 340 333 328 333 333 322 319 319 310 302 305 317 280 139 23 25 214 181 184 143 128 109 149 136 132 136 127 76 203 212 197 197 164 206 224 170 170 176 166 168 169 169 175
335 341 339 334 333 336 340 334 319 310 299 307 289 298 207 164 328 330 179 175 123 146 151 152 101 151 131 187 199 196 216 214 222 191 198 203 233 155 181 184 177 178 177 179 178
331 338 340 334 343 9 25 10 352 322 305 265 282 273 281 290 318 150 175 189 157 165 160 119 197 201 181 196 158 205 227 240 239 195 202 222 235 189 189 193 192 190 190 189 186
327 335 339 339 15 74 48 46 12 322 314 328 307 275 273 255 302 194 170 161 171 184 136 173 236 213 158 184 168 176 204 244 263 188 202 226 242 195 195 208 206 199 199 195 188
328 337 342 357 62 97 29 6 344 326 264 305 328 336 348 180 203 229 177 171 162 176 187 229 234 143 164 167 185 204 212 224 240 145 196 242 249 226 212 220 212 214 209 204 199
341 346 351 34 117 99 10 347 340 337 324 10 10 43 19 92 187 261 193 174 163 222 180 255 235 217 215 215 207 228 218 226 214 204 233 204 245 243 226 215 214 212 207 204 196
1 4 23 142 114 53 350 342 335 337 62 336 7 349 353 353 323 24 196 213 202 179 186 228 201 193 218 236 196 237 182 217 219 224 239 195 240 229 191 223 223 215 209 200 190
38 46 64 99 112 9 345 339 320 262 49 5 342 352 31 22 26 354 3 284 101 179 231 261 216 232 257 229 194 194 197 116 122 233 243 235 229 239 203 224 233 220 204 190 180
53 57 65 72 55 355 337 326 27 44 336 353 345 358 43 9 17 12 1 32 358 296 253 273 259 260 226 254 218 210 209 257 238 214 253 229 223 245 236 273 277 240 194 184 175
65 66 64 62 18 351 354 67 59 341 357 330 335 39 52 14 11 0 8 23 43 5 308 314 306 1 8 245 298 211 220 239 263 263 268 157 235 236 327 311 271 252 184 177 174
72 66 53 32 10 22 77 55 28 333 319 321 311 26 12 12 343 353 31 10 16 9 344 309 278 314 292 299 272 169 226 301 266 254 268 259 212 184 64 33 57 153 168 175 171
71 48 28 19 32 61 70 95 76 3 317 2 32 24 10 3 5 359 18 15 354 5 344 303 281 279 286 290 159 257 48 242 211 263 260 253 263 332 336 343 128 154 171 171 167
75 58 14 24 58 60 69 63 49 14 26 23 10 353 358 350 325 342 347 74 17 360 20 345 284 272 287 261 289 247 238 162 16 254 276 280 268 337 322 308 174 162 171 172 166
64 56 9 39 49 37 51 25 31 4 14 17 32 348 3 347 319 339 5 13 28 5 358 29 296 280 276 235 246 217 259 244 246 232 222 289 261 87 65 122 174 160 168 168 165
82 53 30 57 80 69 45 49 53 19 24 14 15 5 356 348 325 353 348 332 355 357 344 346 328 315 276 205 195 238 110 264 256 209 229 231 254 54 103 177 200 162 157 163 161
113 84 39 59 65 70 85 26 11 18 54 11 27 30 354 334 7 313 320 313 331 332 360 276 266 236 264 310 349 302 1 356 273 220 251 237 286 297 224 206 188 175 167 159 157
66 80 60 27 36 63 70 37 1 7 17 20 41 12 348 300 318 289 317 325 310 352 345 309 277 280 267 241 283 303 342 9 336 326 268 331 307 339 336 271 204 172 165 162 156
98 125 87 71 49 53 24 41 12 338 315 30 2 332 319 271 308 307 315 310 309 330 325 349 274 321 287 280 210 213 257 310 333 346 307 325 295 2 333 214 176 171 166 161 156
85 103 105 20 53 65 41 360 1 340 265 311 329 315 308 315 313 302 282 265 267 297 322 328 328 317 288 324 279 235 2 72 92 60 304 332 340 331 24 96 161 165 163 154 144
Wind_Speed_850mb
24 24 24 24 23 24 24 24 23 23 22 22 22 23 26 26 27 31 32 15 13 21 28 22 15 18 24 21 16 14 8 14 12 14 7 19 17 7 13 21 13 7 11 35 39
24 24 24 23 23 23 24 23 23 22 22 21 22 22 23 26 28 31 11 8 17 20 26 34 19 19 12 13 12 12 15 21 13 17 12 22 20 23 13 24 15 30 34 40 39
25 24 23 22 22 22 22 21 21 21 22 20 21 21 20 23 22 7 9 2 10 23 20 34 23 18 11 11 13 12 21 17 11 19 17 25 23 11 30 14 17 40 48 46 47
26 24 23 22 21 20 20 20 19 20 21 21 19 18 18 17 2 7 4 10 12 32 28 28 23 17 12 13 13 11 16 9 4 18 20 20 26 17 6 9 24 42 49 53 51
27 25 23 22 19 18 19 18 18 18 20 20 17 15 16 10 11 13 8 2 8 36 33 23 23 12 12 10 12 10 3 4 5 16 19 26 13 17 15 19 31 43 46 50 51
28 25 22 20 17 16 18 18 19 20 20 19 17 16 15 9 5 2 7 10 8 24 29 21 13 11 8 6 9 1 7 13 12 20 11 22 10 7 14 24 29 36 43 43 45
26 24 20 18 17 16 17 19 20 20 18 17 17 17 22 18 6 10 7 9 8 10 15 17 7 4 3 9 11 11 9 11 12 12 7 22 7 8 30 30 32 33 39 41 42
25 24 20 17 17 17 17 19 18 17 17 17 17 19 12 5 5 12 14 9 10 12 11 8 18 0 2 17 7 7 5 13 8 12 12 10 32 14 32 35 34 34 36 41 39
26 25 20 16 16 16 17 16 17 19 22 21 18 10 11 6 22 9 14 7 12 9 20 13 17 7 9 8 7 3 9 16 7 18 11 20 17 19 33 35 34 35 33 34 37
24 24 20 15 14 14 16 15 19 21 13 16 16 7 3 3 29 10 8 22 10 18 12 3 5 5 6 11 13 14 8 10 19 22 18 24 17 19 32 36 37 34 33 32 32
22 22 17 13 12 14 16 10 18 7 27 19 23 25 40 29 2 4 7 23 13 8 5 3 7 13 13 15 3 12 11 16 20 11 26 33 31 21 34 35 39 41 41 38 34
18 18 14 11 10 13 21 12 12 15 18 20 12 31 30 31 9 4 16 14 12 10 10 6 14 13 6 11 12 14 13 20 7 16 28 33 39 22 36 46 51 48 47 43 38
15 15 12 8 8 10 15 22 27 28 7 15 14 10 8 17 11 9 24 13 7 12 12 13 6 17 15 14 16 15 20 18 22 7 15 6 29 28 22 36 45 51 49 50 49
12 12 7 5 10 5 13 29 27 10 4 17 22 7 7 5 3 7 25 9 4 13 11 14 8 18 16 20 26 19 31 29 26 16 24 29 29 35 37 34 41 55 61 60 53
11 8 4 5 9 7 16 29 16 6 5 24 20 12 5 3 11 12 18 14 16 14 12 14 12 14 18 29 28 20 5 24 26 32 17 13 15 24 10 31 46 65 73 64 58
13 11 7 6 6 9 24 26 10 3 9 12 15 17 12 16 13 20 5 3 2 10 12 24 5 10 24 11 28 9 6 7 3 11 18 29 26 27 18 33 44 51 61 64 62
21 18 13 10 6 16 25 12 2 10 14 19 18 16 14 19 18 19 14 13 9 8 14 17 23 11 18 25 16 16 13 17 17 13 27 13 26 33 14 14 18 24 55 62 65
37 30 25 19 17 24 17 7 19 13 11 17 14 9 12 23 13 17 18 14 15 11 7 8 12 9 9 14 12 17 18 21 36 28 29 13 17 11 8 20 22 20 50 63 66
38 41 37 29 27 19 9 14 8 10 18 17 11 11 12 17 18 19 11 19 16 27 11 10 15 10 15 10 5 5 14 10 18 13 20 29 11 7 3 12 11 24 50 61 66
15 30 43 37 27 22 14 11 6 20 12 5 14 15 16 21 21 20 13 15 20 26 22 8 15 14 7 5 4 7 4 11 8 24 37 21 11 5 12 8 11 22 39 53 61
8 11 34 27 29 27 9 8 7 31 24 17 12 8 10 13 10 14 7 12 25 33 22 19 11 18 12 13 15 9 15 3 1 6 14 20 6 1 13 10 14 23 35 51 59
14 8 27 20 16 8 7 7 10 19 29 17 10 11 12 14 11 11 13 11 27 29 19 10 11 21 32 6 5 6 6 6 13 17 8 7 14 5 6 5 17 30 35 49 52
14 10 33 15 7 6 6 8 14 20 18 15 17 12 12 9 10 12 15 30 22 29 24 11 5 17 23 12 5 9 2 5 6 4 21 13 11 6 15 14 22 36 47 46 46
9 4 19 39 15 6 4 10 10 17 10 17 14 12 15 12 6 12 15 14 39 29 10 5 8 15 9 17 23 27 6 10 7 9 13 19 26 5 5 13 20 26 43 58 58
10 8 6 6 16 16 7 7 9 11 14 25 7 18 10 8 16 6 23 33 24 17 15 10 19 29 33 31 6 27 15 16 13 13 13 10 14 19 23 20 24 35 44 47 52
9 10 18 9 4 9 10 6 12 11 6 5 11 18 11 7 13 33 36 29 11 20 11 6 6 20 41 35 29 26 38 5 16 18 13 20 24 32 37 7 28 41 51 51 51
24 20 9 9 4 2 3 3 6 12 5 4 15 11 13 17 32 43 35 26 20 9 8 8 10 8 21 17 21 22 9 8 11 8 8 10 21 32 17 10 23 36 44 49 52
Wind_Direction_850mb
314 312 307 306 306 306 308 312 313 309 310 309 311 312 310 306 299 292 286 269 238 209 209 188 189 183 184 194 191 174 187 206 213 202 217 166 158 127 120 126 78 85 124 147 157
320 315 311 307 307 306 307 311 313 311 310 311 311 314 313 313 308 293 268 242 221 204 200 195 196 175 164 184 184 200 211 210 212 203 212 177 176 141 150 139 91 97 123 148 154
326 320 315 315 311 307 304 310 311 312 308 309 312 314 317 323 323 130 125 79 232 197 182 200 195 172 163 170 192 180 220 219 237 210 189 178 156 143 150 175 163 147 140 150 160
327 323 323 317 318 307 307 310 312 311 307 306 308 310 318 324 319 188 239 297 236 188 170 172 178 162 168 183 189 222 233 236 315 203 180 181 152 116 145 111 143 149 156 162 166
333 333 327 321 316 311 308 309 313 311 306 301 302 311 323 304 265 269 301 340 206 185 182 178 173 159 189 181 161 222 223 160 120 163 181 153 150 134 112 124 141 159 162 165 173
337 334 328 321 317 316 310 314 316 311 306 302 310 318 310 273 245 344 106 79 113 177 186 191 197 175 129 145 196 64 135 118 131 148 128 160 129 160 154 148 143 156 165 166 172
339 334 331 327 324 319 319 322 319 315 310 308 310 313 298 282 242 216 89 130 127 169 190 201 146 131 144 134 129 125 131 120 132 149 127 149 178 204 154 157 149 152 162 169 172
339 338 338 333 326 325 331 327 317 313 309 306 309 312 271 312 329 250 236 188 144 161 170 133 196 274 65 122 88 125 130 209 152 177 156 215 218 156 163 164 159 160 160 170 174
338 341 340 333 328 333 333 322 319 319 310 302 305 317 280 139 23 25 214 181 184 143 128 109 149 136 132 136 127 76 203 212 197 197 164 206 224 170 170 176 166 168 169 169 175
335 341 339 334 333 336 340 334 319 310 299 307 289 298 207 164 328 330 179 175 123 146 151 152 101 151 131 187 199 196 216 214 222 191 198 203 233 155 181 184 177 178 177 179 178
331 338 340 334 343 9 25 10 352 322 305 265 282 273 281 290 318 150 175 189 157 165 160 119 197 201 181 196 158 205 227 240 239 195 202 222 235 189 189 193 192 190 190 189 186
327 335 339 339 15 74 48 46 12 322 314 328 307 275 273 255 302 194 170 161 171 184 136 173 236 213 158 184 168 176 204 244 263 188 202 226 242 195 195 208 206 199 199 195 188
328 337 342 357 62 97 29 6 344 326 264 305 328 336 348 180 203 229 177 171 162 176 187 229 234 143 164 167 185 204 212 224 240 145 196 242 249 226 212 220 212 214 209 204 199
341 346 351 34 117 99 10 347 340 337 324 10 10 43 19 92 187 261 193 174 163 222 180 255 235 217 215 215 207 228 218 226 214 204 233 204 245 243 226 215 214 212 207 204 196
1 4 23 142 114 53 350 342 335 337 62 336 7 349 353 353 323 24 196 213 202 179 186 228 201 193 218 236 196 237 182 217 219 224 239 195 240 229 191 223 223 215 209 200 190
38 46 64 99 112 9 345 339 320 262 49 5 342 352 31 22 26 354 3 284 101 179 231 261 216 232 257 229 194 194 197 116 122 233 243 235 229 239 203 224 233 220 204 190 180
53 57 65 72 55 355 337 326 27 44 336 353 345 358 43 9 17 12 1 32 358 296 253 273 259 260 226 254 218 210 209 257 238 214 253 229 223 245 236 273 277 240 194 184 175
65 66 64 62 18 351 354 67 59 341 357 330 335 39 52 14 11 0 8 23 43 5 308 314 306 1 8 245 298 211 220 239 263 263 268 157 235 236 327 311 271 252 184 177 174
72 66 53 32 10 22 77 55 28 333 319 321 311 26 12 12 343 353 31 10 16 9 344 309 278 314 292 299 272 169 226 301 266 254 268 259 212 184 64 33 57 153 168 175 171
71 48 28 19 32 61 70 95 76 3 317 2 32 24 10 3 5 359 18 15 354 5 344 303 281 279 286 290 159 257 48 242 211 263 260 253 263 332 336 343 128 154 171 171 167
75 58 14 24 58 60 69 63 49 14 26 23 10 353 358 350 325 342 347 74 17 360 20 345 284 272 287 261 289 247 238 162 16 254 276 280 268 337 322 308 174 162 171 172 166
64 56 9 39 49 37 51 25 31 4 14 17 32 348 3 347 319 339 5 13 28 5 358 29 296 280 276 235 246 217 259 244 246 232 222 289 261 87 65 122 174 160 168 168 165
82 53 30 57 80 69 45 49 53 19 24 14 15 5 356 348 325 353 348 332 355 357 344 346 328 315 276 205 195 238 110 264 256 209 229 231 254 54 103 177 200 162 157 163 161
113 84 39 59 65 70 85 26 11 18 54 11 27 30 354 334 7 313 320 313 331 332 360 276 266 236 264 310 349 302 1 356 273 220 251 237 286 297 224 206 188 175 167 159 157
66 80 60 27 36 63 70 37 1 7 17 20 41 12 348 300 318 289 317 325 310 352 345 309 277 280 267 241 283 303 342 9 336 326 268 331 307 339 336 271 204 172 165 162 156
98 125 87 71 49 53 24 41 12 338 315 30 2 332 319 271 308 307 315 310 309 330 325 349 274 321 287 280 210 213 257 310 333 346 307 325 295 2 333 214 176 171 166 161 156
85 103 105 20 53 65 41 360 1 340 265 311 329 315 308 315 313 302 282 265 267 297 322 328 328 317 288 324 279 235 2 72 92 60 304 332 340 331 24 96 161 165 163 154 144